Indianapolis, IN

3:16 PM EDT on July 19, 2019 (GMT -0400)
Indianapolis International

Weather History for KIND - May, 2019

Change the Weather History Date:

Friday, May 31, 2019

  Actual Average Record
Temperature  
Mean Temperature 70 °F 67 °F  
Max Temperature 79 °F 77 °F 96 °F (1895)
Min Temperature 60 °F 58 °F 36 °F (1889)
Degree Days  
Heating Degree Days 0 2  
Month to date heating degree days 125 141  
Since 1 July heating degree days 5376 5362  
Cooling Degree Days 5 4  
Month to date cooling degree days 110 69  
Year to date cooling degree days 111 84  
Growing Degree Days 20 (Base 50)    
Moisture  
Dew Point 60 °F    
Average Humidity 74    
Maximum Humidity 100    
Minimum Humidity 47    
Precipitation  
Precipitation 0.00 in 0.16 in 2.61 in (1874)
Month to date precipitation 4.16 5.05  
Year to date precipitation 21.64 17.40  
Snow  
Snow 0.00 in 0.00 in T in (1954)
Month to date snowfall 0.0 T  
Since 1 July snowfall 19.4 25.9  
Snow Depth 0.00 in    
Sea Level Pressure  
Sea Level Pressure 29.87 in    
Wind  
Wind Speed 5 mph (WNW)    
Max Wind Speed 13 mph    
Max Gust Speed 18 mph    
Visibility 10 miles    
Events      
T = Trace of Precipitation, MM = Missing Value Source: NWS Daily Summary

Daily Weather History Graph

Daily Weather History Graph

Search for Another Location

Airport or City:

Astronomy

May. 31, 2019 Rise Set
Actual Time 6:19 AM EDT 9:06 PM EDT
Civil Twilight 5:47 AM EDT 9:38 PM EDT
Nautical Twilight 5:08 AM EDT 10:18 PM EDT
Astronomical Twilight 4:22 AM EDT 11:03 PM EDT
Moon 4:52 AM EDT (5/31) 6:15 PM EDT (5/31)
Length of Visible Light 15h 50m
Length of Day
14h 46m
Waning Crescent, 9% of the Moon is Illuminated
May 31
Waning Crescent
Jun 3
New
Jun 10
First Quarter
Jun 17
Full
Jun 25
Last Quarter

Hourly Weather History & Observations

Time (EDT) Temp. Dew Point Humidity Pressure Visibility Wind Dir Wind Speed Gust Speed Precip Events Conditions
12:12 AM 63.0 °F 61.0 °F 93% 29.84 in 10.0 mi East 9.2 mph - 0.00 in   Overcast
12:54 AM 63.0 °F 60.1 °F 90% 29.83 in 10.0 mi East 4.6 mph - 0.00 in   Mostly Cloudy
1:54 AM 62.1 °F 60.1 °F 93% 29.83 in 10.0 mi SW 5.8 mph - N/A   Overcast
2:54 AM 62.1 °F 60.1 °F 93% 29.83 in 10.0 mi WSW 4.6 mph - N/A   Mostly Cloudy
3:54 AM 62.1 °F 60.1 °F 93% 29.82 in 10.0 mi WSW 3.5 mph - N/A   Overcast
4:54 AM 62.1 °F 60.1 °F 93% 29.82 in 10.0 mi Calm Calm - N/A   Mostly Cloudy
5:54 AM 61.0 °F 60.1 °F 97% 29.83 in 9.0 mi South 3.5 mph - N/A   Scattered Clouds
6:31 AM 60.1 °F 59.0 °F 96% 29.86 in 5.0 mi SSW 3.5 mph - N/A   Mostly Cloudy
6:54 AM 61.0 °F 60.1 °F 97% 29.86 in 4.0 mi West 3.5 mph - N/A   Mostly Cloudy
7:54 AM 64.0 °F 62.1 °F 93% 29.86 in 10.0 mi NW 3.5 mph - N/A   Scattered Clouds
8:34 AM 66.0 °F 61.0 °F 84% 29.88 in 8.0 mi NNW 5.8 mph - N/A   Scattered Clouds
8:54 AM 66.9 °F 61.0 °F 81% 29.88 in 8.0 mi NW 4.6 mph - N/A   Scattered Clouds
9:54 AM 70.0 °F 62.1 °F 76% 29.88 in 10.0 mi WNW 6.9 mph - N/A   Scattered Clouds
10:24 AM 72.0 °F 62.1 °F 71% 29.91 in 10.0 mi NW 9.2 mph - N/A   Mostly Cloudy
10:54 AM 70.0 °F 62.1 °F 76% 29.90 in 10.0 mi NW 10.4 mph - N/A   Mostly Cloudy
11:46 AM 72.0 °F 61.0 °F 68% 29.92 in 10.0 mi NW 5.8 mph - N/A   Mostly Cloudy
11:54 AM 73.0 °F 61.0 °F 66% 29.91 in 10.0 mi NNW 5.8 mph - N/A   Mostly Cloudy
12:54 PM 71.1 °F 61.0 °F 70% 29.91 in 10.0 mi WSW 5.8 mph - N/A   Mostly Cloudy
1:54 PM 75.0 °F 59.0 °F 57% 29.89 in 10.0 mi NW 4.6 mph - N/A   Mostly Cloudy
2:54 PM 77.0 °F 60.1 °F 56% 29.88 in 10.0 mi NW 6.9 mph 16.1 mph N/A   Mostly Cloudy
3:54 PM 77.0 °F 60.1 °F 56% 29.88 in 10.0 mi WNW 6.9 mph - N/A   Mostly Cloudy
4:54 PM 78.1 °F 59.0 °F 52% 29.87 in 10.0 mi West 5.8 mph - N/A   Overcast
5:54 PM 78.1 °F 57.9 °F 50% 29.87 in 10.0 mi Variable 3.5 mph - N/A   Overcast
6:54 PM 77.0 °F 55.9 °F 48% 29.87 in 10.0 mi NNW 8.1 mph - N/A   Mostly Cloudy
7:54 PM 75.0 °F 57.9 °F 55% 29.87 in 10.0 mi NW 4.6 mph - N/A   Mostly Cloudy
8:54 PM 73.9 °F 57.9 °F 57% 29.88 in 10.0 mi WNW 4.6 mph - N/A   Mostly Cloudy
9:54 PM 70.0 °F 59.0 °F 68% 29.88 in 10.0 mi WSW 6.9 mph - N/A   Mostly Cloudy
10:54 PM 69.1 °F 59.0 °F 70% 29.89 in 10.0 mi WSW 4.6 mph - N/A   Mostly Cloudy
11:54 PM 66.0 °F 59.0 °F 78% 29.89 in 10.0 mi WSW 6.9 mph - N/A   Mostly Cloudy